sat.trackr.live / text

‹ back to catalog

STARLINK-35430

NORAD 66020 · 2025-232R

PAYLOAD ACTIVE UNKNOWN

§ Identity

Operator
Country
US
Launch date
2025-10-16
Launch site
AFETR
Launch vehicle
Mass (kg)
RCS (m²)

Purposes: comms

External: N2YO · Heavens-Above · Gunter

§ Orbital elements

Epoch: 2026-05-25T03:43:08.779872Z

Period
94.11 min
Inclination
53.1596°
Eccentricity
0.0001214
Mean motion
15.30203908 rev/d
Perigee alt
474.4 km
Apogee alt
476.0 km
Semi-major
6,853.3 km
B*
3.5170e-4
RAAN
108.6676°
Arg perigee
59.5702°
Mean anomaly
300.5418°
Rev number
3,512

§ Raw data

STARLINK-354301 66020U 25232R   26145.15496273  .00010073  00000+0  35170-3 0  99922 66020  53.1596 108.6676 0001214  59.5702 300.5418 15.30203908 35128

JSON: /api/v1/satellites/66020 · /tle

For live sub-satellite position, see the globe view (requires WebGL).

§ Visibility from observer

Set your observer location to see the next 7 days of passes ≥ 10°. The values pass through the URL so the page stays shareable.

No JS? Fill the form by hand. The geolocation button needs JavaScript.